Time,TemperatureF,DewpointF,PressureIn,WindDirection,WindDirectionDegrees,WindSpeedMPH,WindSpeedGustMPH,Humidity,HourlyPrecipIn,Conditions,Clouds,dailyrainin,SoftwareType,DateUTC
2013-02-14 00:02:00,36.0,34.0,29.77,South,181,4.0,8.0,93,0.00,,,0.00,,2013-02-14 06:02:00,
2013-02-14 00:11:00,36.0,34.0,29.77,SSW,201,5.0,9.0,94,0.00,,,0.00,,2013-02-14 06:11:00,
2013-02-14 00:21:00,36.0,34.0,29.77,SSW,201,5.0,9.0,94,0.00,,,0.00,,2013-02-14 06:21:00,
2013-02-14 00:32:00,36.0,34.0,29.76,South,189,5.0,10.0,93,0.00,,,0.00,,2013-02-14 06:32:00,
2013-02-14 00:42:00,36.0,34.0,29.76,South,189,5.0,10.0,93,0.00,,,0.00,,2013-02-14 06:42:00,
2013-02-14 00:51:00,36.0,34.0,29.75,SSW,198,5.0,10.0,93,0.00,,,0.00,,2013-02-14 06:51:00,
2013-02-14 01:01:00,36.0,34.0,29.75,SSW,197,5.0,10.0,92,0.00,,,0.00,,2013-02-14 07:01:00,
2013-02-14 01:11:00,36.0,34.0,29.75,SSW,197,5.0,10.0,92,0.00,,,0.00,,2013-02-14 07:11:00,
2013-02-14 01:21:00,37.0,35.0,29.75,SSW,203,8.0,13.0,91,0.00,,,0.00,,2013-02-14 07:21:00,
2013-02-14 01:32:00,37.0,34.0,29.75,SSW,201,8.0,13.0,90,0.00,,,0.00,,2013-02-14 07:32:00,
2013-02-14 01:41:00,37.0,34.0,29.75,SSW,201,8.0,13.0,90,0.00,,,0.00,,2013-02-14 07:41:00,
2013-02-14 01:51:00,37.0,34.0,29.74,SSW,199,6.0,13.0,89,0.00,,,0.00,,2013-02-14 07:51:00,
2013-02-14 02:01:00,37.0,34.0,29.74,SSW,212,5.0,10.0,90,0.00,,,0.00,,2013-02-14 08:01:00,
2013-02-14 02:11:00,37.0,34.0,29.74,SSW,212,5.0,10.0,90,0.00,,,0.00,,2013-02-14 08:11:00,
2013-02-14 02:21:00,37.0,34.0,29.74,SSW,192,7.0,10.0,89,0.00,,,0.00,,2013-02-14 08:21:00,
2013-02-14 02:32:00,37.0,34.0,29.74,SSW,205,9.0,14.0,88,0.00,,,0.00,,2013-02-14 08:32:00,
2013-02-14 02:43:00,37.0,34.0,29.74,SSW,205,9.0,14.0,88,0.00,,,0.00,,2013-02-14 08:43:00,
2013-02-14 02:52:00,37.0,34.0,29.73,SSW,200,9.0,16.0,89,0.00,,,0.00,,2013-02-14 08:52:00,
2013-02-14 03:02:00,37.0,34.0,29.73,SSW,200,12.0,17.0,88,0.00,,,0.00,,2013-02-14 09:02:00,
2013-02-14 03:11:00,37.0,34.0,29.73,SSW,200,12.0,17.0,88,0.00,,,0.00,,2013-02-14 09:11:00,
2013-02-14 03:21:00,37.0,34.0,29.72,SSW,195,8.0,17.0,89,0.00,,,0.00,,2013-02-14 09:21:00,
2013-02-14 03:31:00,37.0,34.0,29.71,South,185,10.0,20.0,90,0.00,,,0.00,,2013-02-14 09:31:00,
2013-02-14 03:42:00,37.0,34.0,29.71,South,185,10.0,20.0,90,0.00,,,0.00,,2013-02-14 09:42:00,
2013-02-14 03:51:00,37.0,34.0,29.71,SSW,195,12.0,20.0,90,0.00,,,0.00,,2013-02-14 09:51:00,
2013-02-14 04:02:00,37.0,34.0,29.71,SSW,195,12.0,20.0,90,0.00,,,0.00,,2013-02-14 10:02:00,
2013-02-14 04:11:00,37.0,35.0,29.70,SSW,201,12.0,22.0,91,0.00,,,0.00,,2013-02-14 10:11:00,
2013-02-14 04:21:00,37.0,35.0,29.70,SSW,201,12.0,22.0,91,0.00,,,0.00,,2013-02-14 10:21:00,
2013-02-14 04:31:00,36.0,34.0,29.71,SSW,211,11.0,22.0,93,0.00,,,0.00,,2013-02-14 10:31:00,
2013-02-14 04:42:00,36.0,34.0,29.71,SSW,211,11.0,22.0,93,0.00,,,0.00,,2013-02-14 10:42:00,
2013-02-14 04:52:00,36.0,34.0,29.71,SW,215,12.0,20.0,94,0.00,,,0.00,,2013-02-14 10:52:00,
2013-02-14 05:02:00,36.0,34.0,29.71,SSW,201,10.0,17.0,94,0.00,,,0.00,,2013-02-14 11:02:00,
2013-02-14 05:11:00,36.0,34.0,29.71,SSW,201,10.0,17.0,94,0.00,,,0.00,,2013-02-14 11:11:00,
2013-02-14 05:21:00,36.0,34.0,29.71,SSW,201,10.0,17.0,94,0.00,,,0.00,,2013-02-14 11:21:00,
2013-02-14 05:32:00,36.0,35.0,29.72,SSW,211,11.0,17.0,95,0.00,,,0.00,,2013-02-14 11:32:00,
2013-02-14 05:42:00,36.0,35.0,29.72,SSW,211,11.0,17.0,95,0.00,,,0.00,,2013-02-14 11:42:00,
2013-02-14 05:52:00,36.0,35.0,29.72,SSW,211,11.0,17.0,95,0.00,,,0.00,,2013-02-14 11:52:00,
2013-02-14 06:02:00,35.0,34.0,29.71,SW,217,8.0,16.0,96,0.00,,,0.00,,2013-02-14 12:02:00,
2013-02-14 06:11:00,35.0,34.0,29.71,SW,217,8.0,16.0,96,0.00,,,0.00,,2013-02-14 12:11:00,
2013-02-14 06:22:00,35.0,34.0,29.71,SW,217,8.0,16.0,96,0.00,,,0.00,,2013-02-14 12:22:00,
2013-02-14 06:32:00,35.0,34.0,29.72,SW,215,10.0,15.0,96,0.00,,,0.00,,2013-02-14 12:32:00,
2013-02-14 06:42:00,35.0,34.0,29.72,SW,215,10.0,15.0,96,0.00,,,0.00,,2013-02-14 12:42:00,
2013-02-14 06:53:00,35.0,34.0,29.72,SSW,207,8.0,13.0,96,0.00,,,0.00,,2013-02-14 12:53:00,
2013-02-14 07:01:00,35.0,34.0,29.72,SW,227,9.0,14.0,96,0.00,,,0.00,,2013-02-14 13:01:00,
2013-02-14 07:11:00,35.0,34.0,29.72,SW,227,9.0,14.0,96,0.00,,,0.00,,2013-02-14 13:11:00,
2013-02-14 07:21:00,35.0,34.0,29.72,SSW,212,9.0,14.0,96,0.00,,,0.00,,2013-02-14 13:21:00,
2013-02-14 07:31:00,35.0,34.0,29.73,SW,231,10.0,16.0,96,0.00,,,0.00,,2013-02-14 13:31:00,
2013-02-14 07:42:00,35.0,34.0,29.73,SW,231,10.0,16.0,96,0.00,,,0.00,,2013-02-14 13:42:00,
2013-02-14 07:51:00,35.0,34.0,29.73,SW,231,10.0,16.0,96,0.00,,,0.00,,2013-02-14 13:51:00,
2013-02-14 08:01:00,36.0,35.0,29.75,SW,233,10.0,16.0,95,0.00,,,0.00,,2013-02-14 14:01:00,
2013-02-14 08:11:00,36.0,35.0,29.75,SW,233,10.0,16.0,95,0.00,,,0.00,,2013-02-14 14:11:00,
2013-02-14 08:21:00,36.0,35.0,29.75,SW,233,10.0,16.0,95,0.00,,,0.00,,2013-02-14 14:21:00,
2013-02-14 08:31:00,36.0,34.0,29.76,SW,234,10.0,18.0,92,0.00,,,0.00,,2013-02-14 14:31:00,
2013-02-14 08:41:00,36.0,34.0,29.76,SW,234,10.0,18.0,92,0.00,,,0.00,,2013-02-14 14:41:00,
2013-02-14 08:52:00,37.0,35.0,29.76,WSW,243,9.0,18.0,92,0.00,,,0.00,,2013-02-14 14:52:00,
2013-02-14 09:01:00,38.0,34.0,29.76,WSW,250,14.0,26.0,86,0.00,,,0.00,,2013-02-14 15:01:00,
2013-02-14 09:11:00,38.0,34.0,29.76,WSW,250,14.0,26.0,86,0.00,,,0.00,,2013-02-14 15:11:00,
2013-02-14 09:21:00,39.0,35.0,29.76,West,259,14.0,32.0,84,0.00,,,0.00,,2013-02-14 15:21:00,
2013-02-14 09:32:00,38.0,34.0,29.77,WSW,249,22.0,36.0,84,0.00,,,0.00,,2013-02-14 15:32:00,
2013-02-14 09:41:00,38.0,34.0,29.77,WSW,249,22.0,36.0,84,0.00,,,0.00,,2013-02-14 15:41:00,
2013-02-14 09:52:00,38.0,34.0,29.78,WSW,250,20.0,35.0,84,0.00,,,0.00,,2013-02-14 15:52:00,
2013-02-14 10:01:00,38.0,34.0,29.78,WSW,250,18.0,31.0,85,0.00,,,0.00,,2013-02-14 16:01:00,
2013-02-14 10:11:00,38.0,34.0,29.78,WSW,251,16.0,32.0,85,0.00,,,0.00,,2013-02-14 16:11:00,
2013-02-14 10:21:00,38.0,34.0,29.78,WSW,251,16.0,32.0,85,0.00,,,0.00,,2013-02-14 16:21:00,
2013-02-14 10:32:00,38.0,34.0,29.79,WSW,251,19.0,30.0,84,0.00,,,0.00,,2013-02-14 16:32:00,
2013-02-14 10:41:00,38.0,34.0,29.79,WSW,251,19.0,30.0,84,0.00,,,0.00,,2013-02-14 16:41:00,
2013-02-14 10:51:00,38.0,33.0,29.80,West,261,21.0,44.0,82,0.00,,,0.00,,2013-02-14 16:51:00,
2013-02-14 11:01:00,38.0,33.0,29.81,WSW,258,20.0,38.0,82,0.00,,,0.00,,2013-02-14 17:01:00,
2013-02-14 11:11:00,38.0,33.0,29.81,WSW,258,20.0,38.0,82,0.00,,,0.00,,2013-02-14 17:11:00,
2013-02-14 11:21:00,39.0,34.0,29.81,WSW,252,19.0,31.0,82,0.00,,,0.00,,2013-02-14 17:21:00,
2013-02-14 11:32:00,39.0,34.0,29.82,WSW,250,22.0,37.0,81,0.00,,,0.00,,2013-02-14 17:32:00,
2013-02-14 11:41:00,39.0,34.0,29.82,WSW,250,22.0,37.0,81,0.00,,,0.00,,2013-02-14 17:41:00,
2013-02-14 11:52:00,39.0,33.0,29.82,WSW,256,20.0,37.0,80,0.00,,,0.00,,2013-02-14 17:52:00,
2013-02-14 12:01:00,39.0,33.0,29.83,WSW,256,21.0,47.0,79,0.00,,,0.00,,2013-02-14 18:01:00,
2013-02-14 12:11:00,39.0,33.0,29.83,WSW,256,21.0,47.0,79,0.00,,,0.00,,2013-02-14 18:11:00,
2013-02-14 12:23:00,39.0,33.0,29.82,West,260,21.0,43.0,79,0.00,,,0.00,,2013-02-14 18:23:00,
2013-02-14 12:32:00,40.0,34.0,29.82,WSW,255,21.0,37.0,78,0.00,,,0.00,,2013-02-14 18:32:00,
2013-02-14 12:42:00,40.0,34.0,29.82,WSW,255,21.0,37.0,78,0.00,,,0.00,,2013-02-14 18:42:00,
2013-02-14 12:51:00,40.0,34.0,29.82,WSW,255,21.0,37.0,78,0.00,,,0.00,,2013-02-14 18:51:00,
2013-02-14 13:02:00,40.0,33.0,29.82,WSW,258,22.0,35.0,77,0.00,,,0.00,,2013-02-14 19:02:00,
2013-02-14 13:11:00,40.0,33.0,29.82,WSW,258,22.0,35.0,77,0.00,,,0.00,,2013-02-14 19:11:00,
2013-02-14 13:21:00,41.0,34.0,29.83,WSW,254,20.0,44.0,77,0.00,,,0.00,,2013-02-14 19:21:00,
2013-02-14 13:31:00,41.0,34.0,29.83,West,261,21.0,31.0,75,0.00,,,0.00,,2013-02-14 19:31:00,
2013-02-14 13:41:00,41.0,34.0,29.83,West,261,21.0,31.0,75,0.00,,,0.00,,2013-02-14 19:41:00,
2013-02-14 13:51:00,41.0,34.0,29.84,West,267,19.0,36.0,77,0.00,,,0.00,,2013-02-14 19:51:00,
2013-02-14 14:01:00,41.0,34.0,29.85,WSW,255,16.0,33.0,76,0.00,,,0.00,,2013-02-14 20:01:00,
2013-02-14 14:11:00,41.0,34.0,29.85,WSW,254,20.0,32.0,75,0.00,,,0.00,,2013-02-14 20:11:00,
2013-02-14 14:21:00,41.0,34.0,29.85,WSW,254,20.0,32.0,75,0.00,,,0.00,,2013-02-14 20:21:00,
2013-02-14 14:31:00,41.0,34.0,29.86,WSW,257,21.0,32.0,76,0.00,,,0.00,,2013-02-14 20:31:00,
2013-02-14 14:41:00,41.0,34.0,29.86,WSW,257,21.0,32.0,76,0.00,,,0.00,,2013-02-14 20:41:00,
2013-02-14 14:52:00,41.0,34.0,29.86,WSW,257,21.0,32.0,76,0.00,,,0.00,,2013-02-14 20:52:00,
2013-02-14 15:02:00,41.0,33.0,29.87,West,269,18.0,33.0,74,0.00,,,0.00,,2013-02-14 21:02:00,
2013-02-14 15:11:00,41.0,33.0,29.87,West,269,18.0,33.0,74,0.00,,,0.00,,2013-02-14 21:11:00,
2013-02-14 15:21:00,41.0,33.0,29.87,West,269,18.0,33.0,74,0.00,,,0.00,,2013-02-14 21:21:00,
2013-02-14 15:31:00,41.0,34.0,29.88,West,262,16.0,29.0,75,0.00,,,0.00,,2013-02-14 21:31:00,
2013-02-14 15:42:00,41.0,34.0,29.88,West,262,16.0,29.0,75,0.00,,,0.00,,2013-02-14 21:42:00,
2013-02-14 15:52:00,41.0,34.0,29.88,West,262,16.0,29.0,75,0.00,,,0.00,,2013-02-14 21:52:00,
2013-02-14 16:02:00,40.0,33.0,29.90,WSW,253,14.0,29.0,76,0.00,,,0.00,,2013-02-14 22:02:00,
2013-02-14 16:11:00,40.0,33.0,29.90,WSW,253,14.0,29.0,76,0.00,,,0.00,,2013-02-14 22:11:00,
2013-02-14 16:21:00,40.0,33.0,29.90,WSW,253,14.0,29.0,76,0.00,,,0.00,,2013-02-14 22:21:00,
2013-02-14 16:31:00,40.0,33.0,29.90,WSW,253,14.0,29.0,76,0.00,,,0.00,,2013-02-14 22:31:00,
2013-02-14 16:42:00,40.0,33.0,29.90,WSW,253,14.0,29.0,76,0.00,,,0.00,,2013-02-14 22:42:00,
2013-02-14 17:01:00,39.0,33.0,29.93,WSW,252,18.0,29.0,79,0.00,,,0.00,,2013-02-14 23:01:00,
2013-02-14 17:11:00,39.0,33.0,29.93,WSW,252,18.0,29.0,79,0.00,,,0.00,,2013-02-14 23:11:00,
2013-02-14 17:21:00,39.0,33.0,29.93,WSW,258,14.0,26.0,80,0.00,,,0.00,,2013-02-14 23:21:00,
2013-02-14 17:32:00,39.0,34.0,29.94,WSW,256,14.0,23.0,81,0.00,,,0.00,,2013-02-14 23:32:00,
2013-02-14 17:41:00,39.0,34.0,29.94,WSW,256,14.0,23.0,81,0.00,,,0.00,,2013-02-14 23:41:00,
2013-02-14 17:52:00,39.0,34.0,29.94,WSW,256,14.0,23.0,81,0.00,,,0.00,,2013-02-14 23:52:00,
2013-02-14 18:01:00,39.0,34.0,29.94,WSW,256,14.0,23.0,81,0.00,,,0.00,,2013-02-15 00:01:00,
2013-02-14 18:11:00,39.0,34.0,29.94,WSW,256,14.0,23.0,81,0.00,,,0.00,,2013-02-15 00:11:00,
2013-02-14 18:22:00,38.0,33.0,29.97,WSW,257,12.0,23.0,81,0.00,,,0.00,,2013-02-15 00:22:00,
2013-02-14 18:32:00,38.0,33.0,29.97,WSW,252,12.0,18.0,83,0.00,,,0.00,,2013-02-15 00:32:00,
2013-02-14 18:42:00,38.0,33.0,29.97,WSW,252,12.0,18.0,83,0.00,,,0.00,,2013-02-15 00:42:00,
2013-02-14 18:51:00,38.0,33.0,29.97,WSW,258,7.0,21.0,82,0.00,,,0.00,,2013-02-15 00:51:00,
2013-02-14 19:02:00,37.0,32.0,29.97,West,263,10.0,15.0,82,0.00,,,0.00,,2013-02-15 01:02:00,
2013-02-14 19:11:00,37.0,32.0,29.97,West,263,10.0,15.0,82,0.00,,,0.00,,2013-02-15 01:11:00,
2013-02-14 19:21:00,37.0,32.0,29.96,WSW,256,5.0,13.0,83,0.00,,,0.00,,2013-02-15 01:21:00,
2013-02-14 19:31:00,36.0,32.0,29.98,WSW,254,8.0,13.0,85,0.00,,,0.00,,2013-02-15 01:31:00,
2013-02-14 19:41:00,36.0,32.0,29.98,WSW,254,8.0,13.0,85,0.00,,,0.00,,2013-02-15 01:41:00,
2013-02-14 19:51:00,36.0,32.0,29.98,WSW,256,7.0,13.0,86,0.00,,,0.00,,2013-02-15 01:51:00,
2013-02-14 20:01:00,35.0,32.0,29.98,WSW,252,7.0,9.0,87,0.00,,,0.00,,2013-02-15 02:01:00,
2013-02-14 20:11:00,35.0,32.0,29.98,WSW,252,7.0,9.0,87,0.00,,,0.00,,2013-02-15 02:11:00,
2013-02-14 20:21:00,36.0,33.0,29.98,WSW,255,7.0,10.0,87,0.00,,,0.00,,2013-02-15 02:21:00,
2013-02-14 20:31:00,36.0,32.0,29.97,SW,228,5.0,12.0,86,0.00,,,0.00,,2013-02-15 02:31:00,
2013-02-14 20:41:00,36.0,32.0,29.97,SW,228,5.0,12.0,86,0.00,,,0.00,,2013-02-15 02:41:00,
2013-02-14 20:52:00,36.0,32.0,29.97,SW,228,5.0,12.0,86,0.00,,,0.00,,2013-02-15 02:52:00,
2013-02-14 21:02:00,35.0,32.0,29.98,SW,227,6.0,12.0,90,0.00,,,0.00,,2013-02-15 03:02:00,
2013-02-14 21:11:00,35.0,32.0,29.98,SW,227,6.0,12.0,90,0.00,,,0.00,,2013-02-15 03:11:00,
2013-02-14 21:22:00,35.0,32.0,29.98,WSW,247,6.0,12.0,90,0.00,,,0.00,,2013-02-15 03:22:00,
2013-02-14 21:32:00,35.0,32.0,29.98,SW,223,6.0,10.0,90,0.00,,,0.00,,2013-02-15 03:32:00,
2013-02-14 21:42:00,35.0,32.0,29.98,SW,223,6.0,10.0,90,0.00,,,0.00,,2013-02-15 03:42:00,
2013-02-14 21:51:00,35.0,32.0,29.98,WSW,246,7.0,10.0,90,0.00,,,0.00,,2013-02-15 03:51:00,
2013-02-14 22:01:00,35.0,32.0,29.98,WSW,258,6.0,10.0,89,0.00,,,0.00,,2013-02-15 04:01:00,
2013-02-14 22:11:00,35.0,32.0,29.98,WSW,258,6.0,10.0,89,0.00,,,0.00,,2013-02-15 04:11:00,
2013-02-14 22:21:00,35.0,32.0,29.98,WSW,258,6.0,10.0,89,0.00,,,0.00,,2013-02-15 04:21:00,
2013-02-14 22:32:00,34.0,32.0,29.98,SW,225,4.0,7.0,92,0.00,,,0.00,,2013-02-15 04:32:00,
2013-02-14 22:42:00,34.0,32.0,29.98,SW,225,4.0,7.0,92,0.00,,,0.00,,2013-02-15 04:42:00,
2013-02-14 22:52:00,34.0,32.0,29.99,SW,231,3.0,6.0,93,0.00,,,0.00,,2013-02-15 04:52:00,
2013-02-14 23:02:00,34.0,32.0,29.99,SW,231,3.0,6.0,93,0.00,,,0.00,,2013-02-15 05:02:00,
2013-02-14 23:12:00,34.0,32.0,29.99,SW,231,3.0,6.0,93,0.00,,,0.00,,2013-02-15 05:12:00,
2013-02-14 23:22:00,35.0,33.0,29.99,West,274,6.0,9.0,93,0.00,,,0.00,,2013-02-15 05:22:00,
2013-02-14 23:32:00,35.0,33.0,29.98,WSW,257,6.0,8.0,93,0.00,,,0.00,,2013-02-15 05:32:00,
2013-02-14 23:42:00,35.0,33.0,29.98,WSW,257,6.0,8.0,93,0.00,,,0.00,,2013-02-15 05:42:00,
2013-02-14 23:52:00,35.0,33.0,29.98,WSW,257,6.0,8.0,93,0.00,,,0.00,,2013-02-15 05:52:00,